Showing default

LANDSAT 1 (ERTS 1), 6126

Orbit data source: Space-Track

LANDSAT 1 (ERTS 1), 6126 is a payload satellite owned by GSFC (US) in SSO that was launched on Sun, 23 Jul 1972 UTC via a DELTA 0900 launch vehicle from the Air Force Western Test Range (AFWTR). Payload-class satellites include a variety of spacecraft equipped with specific instruments for various scientific and technological missions. These include communications satellites like Starlink; space stations such as the ISS; scientific satellites like the Hubble; Earth observation satellites from companies like Planet Labs, Umbra, and HawkEye 360; GPS; miniature CubeSats for education and research; and military/defense satellites.

Loading next visibility...
Identifier
6126, 1972-058A
Orbit
SSO
Country
Flag of USUS
Related business
Manufacturer
GE/MSVD
Mission
Non-operational Civil Imaging
Bus & Motor
NIMBUS, Unknown motor
Mass
891 kg wet, 891 kg dry
Launch date (UTC)
1972-07-23 (53 years ago)
Launch vehicle
DELTA 0900
Launch site
Air Force Western Test Range (AFWTR)
Object type
Payload
Rocket body
Debris
Shape & HBR
Cone + 2 Pan, 1.6 m
Radar Cross Section
2.170 m², Large (>1 m²)

Expand to show TLE details & history
Last TLE update: 17 hours ago

TLE from 17 hours ago
0 LANDSAT 1 (ERTS 1)
1 06126U 72058A   25261.03390324 -.00000129  00000-0 -58298-4 0  9997
2 06126  99.3648 280.8460 0007145 275.7275  84.3072 13.97801209709938
Epoch: 2025-09-18T00:48Z
TLE epoch observation values (Epoch: 2025-09-18T00:48:49.239Z)
Latitude
-0.00008°
Longitude
-88.56045°
Altitude
903.769 km
Speed
7.4 km/s
True Right ascension
18h 43m 23s
True Declination
0° 00' 00"
Sunlit
Object was in daylight at epoch
Visualization orbit readout
Latitude
Unknown
Longitude
Unknown
Altitude
Unknown
Speed
Unknown
Apparent Right ascension
Unknown
Apparent Declination
Unknown
Sunlit
N/A
Visualization observer readout
Local Sidereal Time
10:43:04
Azimuth
Unknown
Elevation
Unknown
Doppler factor
Unknown
Orbital elements
Apogee altitude
903.839 km
Perigee altitude
893.44 km
Semi-major axis
7,276.777 km
Eccentricity
0.00071
Inclination
99.3648°
RAAN
280.846°
Arg. of periapsis
275.7275°
True anomaly
84.38868°
Mean anomaly
84.3072°
Eccentric anomaly
84.34794°
Mean motion
3.49651 °/min
Orbital period
102.96 mins
BSTAR
-0.000058298
Loading maneuver chart data...
Computing Atmospheric mass density...

Documentation

Showing up to 5 results
|